Location: *
(31.2983°S, 151.4094°E)
Time: 23:35:52
(UTC+00:00)

COSMO-SKYMED 1 - Pass Details

Date: 25 August 2019
Orbit: 621 x 623 km, 97.9° (Epoch: 19 September)

Event Time Altitude Azimuth Distance (km) Brightness Sun altitude
Rises 19:49:09 0° 167° (SSE) 2,936 6.1 -7.1°
Reaches altitude 10° 19:51:22 10° 166° (SSE) 2,022 5.3 -6.6°
Maximum altitude 19:55:47 82° 78° (ENE) 642 2.8 -5.6°
Drops below altitude 10° 20:00:07 10° 350° (N) 1,994 5.2 -4.7°
Sets 20:02:18 0° 349° (N) 2,892 6.0 -4.3°
